Time,TemperatureF,DewpointF,PressureIn,WindDirection,WindDirectionDegrees,WindSpeedMPH,WindSpeedGustMPH,Humidity,HourlyPrecipIn,Conditions,Clouds,dailyrainin,SoftwareType,DateUTC
2013-01-28 00:00:00,29.5,7.6,29.29,SE,135,0.0,0.0,39,0.00,,---,0.00,VWS V13.01,2013-01-28 05:00:00,
2013-01-28 00:13:00,29.3,8.5,29.29,SE,135,0.0,0.0,41,0.00,,---,0.00,VWS V13.01,2013-01-28 05:13:00,
2013-01-28 00:14:00,29.3,8.5,29.29,SE,135,0.0,0.0,41,0.00,,---,0.00,VWS V13.01,2013-01-28 05:14:00,
2013-01-28 00:15:00,29.3,8.5,29.29,SE,135,0.0,0.0,41,0.00,,---,0.00,VWS V13.01,2013-01-28 05:15:00,
2013-01-28 00:20:00,29.3,8.5,29.29,SE,135,0.0,0.0,41,0.00,,---,0.00,VWS V13.01,2013-01-28 05:20:00,
2013-01-28 00:25:00,28.9,7.1,29.29,SE,135,0.0,0.0,39,0.00,,---,0.00,VWS V13.01,2013-01-28 05:25:00,
2013-01-28 00:30:00,28.8,6.9,29.29,SE,135,0.0,0.0,39,0.00,,---,0.00,VWS V13.01,2013-01-28 05:30:00,
2013-01-28 00:35:00,28.8,5.8,29.26,SE,135,0.0,0.0,37,0.00,,---,0.00,VWS V13.01,2013-01-28 05:35:00,
2013-01-28 00:41:00,28.8,5.8,29.26,SE,135,0.0,0.0,37,0.00,,---,0.00,VWS V13.01,2013-01-28 05:41:00,
2013-01-28 00:46:00,28.9,5.9,29.26,SE,135,0.0,0.0,37,0.00,,---,0.00,VWS V13.01,2013-01-28 05:46:00,
2013-01-28 00:51:00,28.9,5.3,29.29,SE,135,0.0,0.0,36,0.00,,---,0.00,VWS V13.01,2013-01-28 05:51:00,
2013-01-28 00:56:00,28.9,5.9,29.29,SE,135,0.0,0.0,37,0.00,,---,0.00,VWS V13.01,2013-01-28 05:56:00,
2013-01-28 01:01:00,29.1,7.3,29.29,SE,135,0.0,0.0,39,0.00,,---,0.00,VWS V13.01,2013-01-28 06:01:00,
2013-01-28 01:06:00,29.1,8.4,29.29,SE,135,0.0,0.0,41,0.00,,---,0.00,VWS V13.01,2013-01-28 06:06:00,
2013-01-28 01:11:00,29.1,8.9,29.29,SE,135,0.0,0.0,42,0.00,,---,0.00,VWS V13.01,2013-01-28 06:11:00,
2013-01-28 01:16:00,28.8,8.0,29.29,SE,135,0.0,0.0,41,0.00,,---,0.00,VWS V13.01,2013-01-28 06:16:00,
2013-01-28 01:21:00,28.8,6.9,29.29,SE,135,0.0,0.0,39,0.00,,---,0.00,VWS V13.01,2013-01-28 06:21:00,
2013-01-28 01:26:00,28.6,5.6,29.29,SE,135,0.0,0.0,37,0.00,,---,0.00,VWS V13.01,2013-01-28 06:26:00,
2013-01-28 01:32:00,28.6,5.6,29.26,SE,135,0.0,0.0,37,0.00,,---,0.00,VWS V13.01,2013-01-28 06:32:00,
2013-01-28 01:37:00,28.6,6.2,29.26,SE,135,0.0,0.0,38,0.00,,---,0.00,VWS V13.01,2013-01-28 06:37:00,
2013-01-28 01:42:00,28.6,6.2,29.26,SE,135,0.0,0.0,38,0.00,,---,0.00,VWS V13.01,2013-01-28 06:42:00,
2013-01-28 01:47:00,28.6,6.8,29.26,SE,135,0.0,0.0,39,0.00,,---,0.00,VWS V13.01,2013-01-28 06:47:00,
2013-01-28 01:52:00,28.8,6.9,29.26,SE,135,0.0,0.0,39,0.00,,---,0.00,VWS V13.01,2013-01-28 06:52:00,
2013-01-28 01:57:00,28.8,8.0,29.26,SE,135,0.0,0.0,41,0.00,,---,0.00,VWS V13.01,2013-01-28 06:57:00,
2013-01-28 02:02:00,28.8,8.0,29.26,SE,135,0.0,0.0,41,0.00,,---,0.00,VWS V13.01,2013-01-28 07:02:00,
2013-01-28 02:07:00,28.8,8.0,29.26,SE,135,0.0,0.0,41,0.00,,---,0.00,VWS V13.01,2013-01-28 07:07:00,
2013-01-28 02:12:00,28.8,8.0,29.26,SE,135,0.0,0.0,41,0.00,,---,0.00,VWS V13.01,2013-01-28 07:12:00,
2013-01-28 02:17:00,28.8,8.0,29.26,SE,135,0.0,0.0,41,0.00,,---,0.00,VWS V13.01,2013-01-28 07:17:00,
2013-01-28 02:22:00,28.9,8.2,29.26,SE,135,0.0,0.0,41,0.00,,---,0.00,VWS V13.01,2013-01-28 07:22:00,
2013-01-28 02:28:00,28.8,8.0,29.26,SE,135,0.0,0.0,41,0.00,,---,0.00,VWS V13.01,2013-01-28 07:28:00,
2013-01-28 02:33:00,28.9,8.2,29.26,SE,135,0.0,0.0,41,0.00,,---,0.00,VWS V13.01,2013-01-28 07:33:00,
2013-01-28 02:38:00,28.9,8.2,29.26,SE,135,0.0,0.0,41,0.00,,---,0.00,VWS V13.01,2013-01-28 07:38:00,
2013-01-28 02:43:00,28.9,8.7,29.26,SE,135,0.0,0.0,42,0.00,,---,0.00,VWS V13.01,2013-01-28 07:43:00,
2013-01-28 02:48:00,28.9,8.7,29.26,SE,135,0.0,0.0,42,0.00,,---,0.00,VWS V13.01,2013-01-28 07:48:00,
2013-01-28 02:53:00,28.8,8.0,29.26,SE,135,0.0,0.0,41,0.00,,---,0.00,VWS V13.01,2013-01-28 07:53:00,
2013-01-28 02:58:00,28.8,8.0,29.26,SE,135,0.0,0.0,41,0.00,,---,0.00,VWS V13.01,2013-01-28 07:58:00,
2013-01-28 03:03:00,28.9,8.2,29.26,SE,135,0.0,0.0,41,0.00,,---,0.00,VWS V13.01,2013-01-28 08:03:00,
2013-01-28 03:08:00,28.9,8.2,29.26,SE,135,0.0,0.0,41,0.00,,---,0.00,VWS V13.01,2013-01-28 08:08:00,
2013-01-28 03:14:00,28.8,8.0,29.26,SE,135,0.0,0.0,41,0.00,,---,0.00,VWS V13.01,2013-01-28 08:14:00,
2013-01-28 03:19:00,28.8,8.0,29.26,SE,135,0.0,0.0,41,0.00,,---,0.00,VWS V13.01,2013-01-28 08:19:00,
2013-01-28 03:24:00,28.8,8.0,29.26,SE,135,0.0,0.0,41,0.00,,---,0.00,VWS V13.01,2013-01-28 08:24:00,
2013-01-28 03:29:00,28.8,8.6,29.26,SE,135,0.0,0.0,42,0.00,,---,0.00,VWS V13.01,2013-01-28 08:29:00,
2013-01-28 03:34:00,28.8,8.6,29.26,SE,135,0.0,0.0,42,0.00,,---,0.00,VWS V13.01,2013-01-28 08:34:00,
2013-01-28 03:39:00,28.6,8.9,29.26,SE,135,0.0,0.0,43,0.00,,---,0.00,VWS V13.01,2013-01-28 08:39:00,
2013-01-28 03:44:00,28.6,9.4,29.26,SE,135,0.0,0.0,44,0.00,,---,0.00,VWS V13.01,2013-01-28 08:44:00,
2013-01-28 03:49:00,28.6,9.4,29.23,SE,135,0.0,0.0,44,0.00,,---,0.00,VWS V13.01,2013-01-28 08:49:00,
2013-01-28 03:54:00,28.4,10.8,29.23,SE,135,0.0,0.0,47,0.00,,---,0.00,VWS V13.01,2013-01-28 08:54:00,
2013-01-28 04:00:00,28.2,10.6,29.23,SE,135,0.0,0.0,47,0.00,,---,0.00,VWS V13.01,2013-01-28 09:00:00,
2013-01-28 04:05:00,28.2,10.6,29.23,SE,135,0.0,0.0,47,0.00,,---,0.00,VWS V13.01,2013-01-28 09:05:00,
2013-01-28 04:10:00,28.2,12.0,29.23,SE,135,0.0,0.0,50,0.00,,---,0.00,VWS V13.01,2013-01-28 09:10:00,
2013-01-28 04:15:00,28.2,12.4,29.23,SE,135,0.0,0.0,51,0.00,,---,0.00,VWS V13.01,2013-01-28 09:15:00,
2013-01-28 04:20:00,28.4,13.0,29.20,SE,135,0.0,0.0,52,0.00,,---,0.00,VWS V13.01,2013-01-28 09:20:00,
2013-01-28 04:25:00,28.6,13.6,29.20,SE,135,0.0,0.0,53,0.00,,---,0.00,VWS V13.01,2013-01-28 09:25:00,
2013-01-28 04:30:00,28.6,14.5,29.20,SE,135,0.0,0.0,55,0.00,,---,0.00,VWS V13.01,2013-01-28 09:30:00,
2013-01-28 04:35:00,28.8,15.1,29.20,SE,135,0.0,0.0,56,0.00,,---,0.00,VWS V13.01,2013-01-28 09:35:00,
2013-01-28 04:41:00,28.9,15.6,29.20,SE,135,0.0,0.0,57,0.00,,---,0.00,VWS V13.01,2013-01-28 09:41:00,
2013-01-28 04:46:00,29.1,16.2,29.20,SE,135,0.0,0.0,58,0.00,,---,0.00,VWS V13.01,2013-01-28 09:46:00,
2013-01-28 04:51:00,29.1,16.2,29.20,SE,135,0.0,0.0,58,0.00,,---,0.00,VWS V13.01,2013-01-28 09:51:00,
2013-01-28 04:56:00,29.5,17.7,29.20,SE,135,0.0,0.0,61,0.00,,---,0.00,VWS V13.01,2013-01-28 09:56:00,
2013-01-28 05:01:00,29.7,18.6,29.20,SE,135,0.0,0.0,63,0.00,,---,0.00,VWS V13.01,2013-01-28 10:01:00,
2013-01-28 05:06:00,29.7,19.0,29.20,SE,135,0.0,0.0,64,0.00,,---,0.00,VWS V13.01,2013-01-28 10:06:00,
2013-01-28 05:11:00,29.8,19.9,29.20,SE,135,0.0,0.0,66,0.00,,---,0.00,VWS V13.01,2013-01-28 10:11:00,
2013-01-28 05:16:00,29.8,20.2,29.20,SE,135,0.0,0.0,67,0.00,,---,0.00,VWS V13.01,2013-01-28 10:16:00,
2013-01-28 05:21:00,30.0,20.8,29.20,SE,135,4.0,4.0,68,0.00,,---,0.00,VWS V13.01,2013-01-28 10:21:00,
2013-01-28 05:26:00,30.2,21.3,29.20,SE,135,0.0,3.1,69,0.00,,---,0.00,VWS V13.01,2013-01-28 10:26:00,
2013-01-28 05:31:00,30.4,21.8,29.20,SE,135,0.0,3.1,70,0.00,,---,0.00,VWS V13.01,2013-01-28 10:31:00,
2013-01-28 05:37:00,30.2,21.9,29.20,SE,135,0.0,3.1,71,0.00,,---,0.00,VWS V13.01,2013-01-28 10:37:00,
2013-01-28 05:42:00,30.2,22.3,29.20,SE,135,0.0,3.1,72,0.00,,---,0.00,VWS V13.01,2013-01-28 10:42:00,
2013-01-28 05:47:00,30.2,22.6,29.17,SE,135,0.0,0.0,73,0.00,,---,0.00,VWS V13.01,2013-01-28 10:47:00,
2013-01-28 05:52:00,30.2,22.6,29.17,SE,135,0.0,0.0,73,0.00,,---,0.00,VWS V13.01,2013-01-28 10:52:00,
2013-01-28 05:57:00,30.2,22.9,29.17,SE,135,0.0,0.0,74,0.00,,---,0.00,VWS V13.01,2013-01-28 10:57:00,
2013-01-28 06:02:00,30.2,23.2,29.20,SE,135,0.0,0.0,75,0.00,,---,0.00,VWS V13.01,2013-01-28 11:02:00,
2013-01-28 06:07:00,30.4,23.7,29.20,SE,135,0.0,0.0,76,0.00,,---,0.00,VWS V13.01,2013-01-28 11:07:00,
2013-01-28 06:12:00,30.4,23.7,29.20,SE,135,0.0,0.0,76,0.00,,---,0.00,VWS V13.01,2013-01-28 11:12:00,
2013-01-28 06:17:00,30.7,24.4,29.20,SE,135,0.0,0.0,77,0.00,,---,0.00,VWS V13.01,2013-01-28 11:17:00,
2013-01-28 06:22:00,30.7,24.4,29.20,SE,135,0.0,0.0,77,0.00,,---,0.00,VWS V13.01,2013-01-28 11:22:00,
2013-01-28 06:27:00,30.9,24.9,29.20,SE,135,0.0,0.0,78,0.00,,---,0.00,VWS V13.01,2013-01-28 11:27:00,
2013-01-28 06:32:00,30.9,24.9,29.17,SE,135,0.0,0.0,78,0.00,,---,0.00,VWS V13.01,2013-01-28 11:32:00,
2013-01-28 06:37:00,30.9,25.2,29.17,SE,135,0.0,0.0,79,0.00,,---,0.00,VWS V13.01,2013-01-28 11:37:00,
2013-01-28 06:42:00,30.7,25.0,29.17,SE,135,0.0,0.0,79,0.00,,---,0.00,VWS V13.01,2013-01-28 11:42:00,
2013-01-28 06:48:00,30.6,24.8,29.17,SE,135,0.0,0.0,79,0.00,,---,0.00,VWS V13.01,2013-01-28 11:48:00,
2013-01-28 06:53:00,30.9,25.2,29.17,SE,135,0.0,0.0,79,0.00,,---,0.00,VWS V13.01,2013-01-28 11:53:00,
2013-01-28 06:58:00,31.1,25.7,29.17,SE,135,0.0,0.0,80,0.00,,---,0.00,VWS V13.01,2013-01-28 11:58:00,
2013-01-28 07:03:00,31.3,25.8,29.17,SE,135,0.0,0.0,80,0.00,,---,0.00,VWS V13.01,2013-01-28 12:03:00,
2013-01-28 07:08:00,31.6,26.5,29.17,SE,135,0.0,0.0,81,0.00,,---,0.00,VWS V13.01,2013-01-28 12:08:00,
2013-01-28 07:13:00,31.6,26.5,29.17,SE,135,0.0,0.0,81,0.00,,---,0.00,VWS V13.01,2013-01-28 12:13:00,
2013-01-28 07:18:00,31.8,27.0,29.17,SE,135,0.0,0.0,82,0.00,,---,0.00,VWS V13.01,2013-01-28 12:18:00,
2013-01-28 07:23:00,32.0,27.1,29.17,SE,135,0.0,0.0,82,0.00,,---,0.00,VWS V13.01,2013-01-28 12:23:00,
2013-01-28 07:28:00,32.2,27.6,29.17,SE,135,0.0,0.0,83,0.00,,---,0.00,VWS V13.01,2013-01-28 12:28:00,
2013-01-28 07:34:00,32.2,27.6,29.17,SE,135,0.0,0.0,83,0.00,,---,0.00,VWS V13.01,2013-01-28 12:34:00,
2013-01-28 07:39:00,32.2,27.6,29.17,SE,135,0.0,0.0,83,0.00,,---,0.00,VWS V13.01,2013-01-28 12:39:00,
2013-01-28 07:44:00,32.4,27.8,29.17,SE,135,0.0,0.0,83,0.00,,---,0.00,VWS V13.01,2013-01-28 12:44:00,
2013-01-28 07:49:00,32.4,28.1,29.17,SE,135,0.0,0.0,84,0.00,,---,0.00,VWS V13.01,2013-01-28 12:49:00,
2013-01-28 07:54:00,32.4,28.1,29.17,SE,135,0.0,0.0,84,0.00,,---,0.00,VWS V13.01,2013-01-28 12:54:00,
2013-01-28 07:59:00,32.5,28.2,29.17,SE,135,0.0,0.0,84,0.00,,---,0.00,VWS V13.01,2013-01-28 12:59:00,
2013-01-28 08:04:00,32.5,28.2,29.17,SE,135,0.0,0.0,84,0.00,,---,0.00,VWS V13.01,2013-01-28 13:04:00,
2013-01-28 08:09:00,32.5,28.2,29.17,SE,135,0.0,0.0,84,0.00,,---,0.00,VWS V13.01,2013-01-28 13:09:00,
2013-01-28 08:14:00,32.7,28.4,29.17,SE,135,0.0,0.0,84,0.00,,---,0.00,VWS V13.01,2013-01-28 13:14:00,
2013-01-28 08:19:00,32.9,28.6,29.17,SE,135,0.0,0.0,84,0.00,,---,0.00,VWS V13.01,2013-01-28 13:19:00,
2013-01-28 08:24:00,33.1,28.8,29.17,SE,135,0.0,0.0,84,0.00,,---,0.00,VWS V13.01,2013-01-28 13:24:00,
2013-01-28 08:29:00,33.1,28.8,29.17,SE,135,0.0,0.0,84,0.00,,---,0.00,VWS V13.01,2013-01-28 13:29:00,
2013-01-28 08:34:00,33.3,29.2,29.17,SE,135,0.0,0.0,85,0.00,,---,0.00,VWS V13.01,2013-01-28 13:34:00,
2013-01-28 08:39:00,33.3,29.2,29.17,SE,135,0.0,0.0,85,0.00,,---,0.00,VWS V13.01,2013-01-28 13:39:00,
2013-01-28 08:45:00,33.4,29.4,29.17,SE,135,0.0,0.0,85,0.00,,---,0.00,VWS V13.01,2013-01-28 13:45:00,
2013-01-28 08:50:00,33.4,29.4,29.14,SE,135,0.0,0.0,85,0.00,,---,0.00,VWS V13.01,2013-01-28 13:50:00,
2013-01-28 08:55:00,33.4,29.4,29.14,SE,135,0.0,0.0,85,0.00,,---,0.00,VWS V13.01,2013-01-28 13:55:00,
2013-01-28 09:00:00,33.4,29.4,29.14,SE,135,0.0,0.0,85,0.00,,---,0.00,VWS V13.01,2013-01-28 14:00:00,
2013-01-28 09:05:00,33.4,29.4,29.14,SE,135,0.0,0.0,85,0.00,,---,0.00,VWS V13.01,2013-01-28 14:05:00,
2013-01-28 09:10:00,33.6,29.6,29.14,SE,135,0.0,0.0,85,0.00,,---,0.00,VWS V13.01,2013-01-28 14:10:00,
2013-01-28 09:15:00,33.6,29.6,29.14,SE,135,0.0,0.0,85,0.00,,---,0.00,VWS V13.01,2013-01-28 14:15:00,
2013-01-28 09:20:00,33.6,29.6,29.17,SE,135,0.0,0.0,85,0.00,,---,0.00,VWS V13.01,2013-01-28 14:20:00,
2013-01-28 09:25:00,33.6,29.6,29.17,SE,135,0.0,0.0,85,0.00,,---,0.00,VWS V13.01,2013-01-28 14:25:00,
2013-01-28 09:30:00,33.6,29.9,29.17,SE,135,0.0,0.0,86,0.00,,---,0.00,VWS V13.01,2013-01-28 14:30:00,
2013-01-28 09:35:00,33.8,29.8,29.14,SE,135,0.0,0.0,85,0.00,,---,0.00,VWS V13.01,2013-01-28 14:35:00,
2013-01-28 09:40:00,33.6,29.9,29.14,SE,135,0.0,0.0,86,0.00,,---,0.00,VWS V13.01,2013-01-28 14:40:00,
2013-01-28 09:45:00,33.6,29.9,29.14,SE,135,0.0,0.0,86,0.00,,---,0.00,VWS V13.01,2013-01-28 14:45:00,
2013-01-28 09:51:00,34.0,30.0,29.14,SE,135,0.0,0.0,85,0.04,,---,0.04,VWS V13.01,2013-01-28 14:51:00,
2013-01-28 09:56:00,34.2,30.4,29.14,SE,135,0.0,0.0,86,0.04,,---,0.04,VWS V13.01,2013-01-28 14:56:00,
2013-01-28 10:01:00,34.3,30.6,29.14,SE,135,0.0,0.0,86,0.04,,---,0.04,VWS V13.01,2013-01-28 15:01:00,
2013-01-28 10:06:00,34.5,30.8,29.14,SE,135,0.0,0.0,86,0.04,,---,0.04,VWS V13.01,2013-01-28 15:06:00,
2013-01-28 10:11:00,34.5,30.8,29.14,SE,135,0.0,0.0,86,0.04,,---,0.04,VWS V13.01,2013-01-28 15:11:00,
2013-01-28 10:16:00,34.5,30.8,29.14,SE,135,0.0,0.0,86,0.04,,---,0.04,VWS V13.01,2013-01-28 15:16:00,
2013-01-28 10:21:00,34.5,30.8,29.14,SE,135,0.0,0.0,86,0.04,,---,0.04,VWS V13.01,2013-01-28 15:21:00,
2013-01-28 10:26:00,34.7,31.0,29.14,SE,135,0.0,0.0,86,0.04,,---,0.04,VWS V13.01,2013-01-28 15:26:00,
2013-01-28 10:31:00,35.2,31.5,29.12,SE,135,0.0,0.0,86,0.04,,---,0.04,VWS V13.01,2013-01-28 15:31:00,
2013-01-28 10:37:00,35.4,31.7,29.12,SE,135,0.0,0.0,86,0.04,,---,0.04,VWS V13.01,2013-01-28 15:37:00,
2013-01-28 10:42:00,35.8,32.0,29.12,SE,135,0.0,0.0,86,0.04,,---,0.04,VWS V13.01,2013-01-28 15:42:00,
2013-01-28 10:47:00,35.6,31.8,29.14,SE,135,0.0,0.0,86,0.04,,---,0.04,VWS V13.01,2013-01-28 15:47:00,
2013-01-28 10:52:00,35.6,31.8,29.14,SE,135,0.0,0.0,86,0.04,,---,0.04,VWS V13.01,2013-01-28 15:52:00,
2013-01-28 10:57:00,35.4,31.7,29.14,SE,135,0.0,0.0,86,0.04,,---,0.04,VWS V13.01,2013-01-28 15:57:00,
2013-01-28 11:02:00,35.4,31.7,29.14,SE,135,0.0,0.0,86,0.04,,---,0.04,VWS V13.01,2013-01-28 16:02:00,
2013-01-28 11:07:00,35.1,31.3,29.14,SE,135,0.0,0.0,86,0.00,,---,0.04,VWS V13.01,2013-01-28 16:07:00,
2013-01-28 11:12:00,35.1,31.3,29.14,SE,135,0.0,0.0,86,0.00,,---,0.04,VWS V13.01,2013-01-28 16:12:00,
2013-01-28 11:17:00,35.1,31.3,29.14,SE,135,0.0,0.0,86,0.00,,---,0.04,VWS V13.01,2013-01-28 16:17:00,
2013-01-28 11:22:00,35.1,31.3,29.14,SE,135,0.0,0.0,86,0.00,,---,0.04,VWS V13.01,2013-01-28 16:22:00,
2013-01-28 11:28:00,34.9,31.1,29.14,SE,135,0.0,0.0,86,0.00,,---,0.04,VWS V13.01,2013-01-28 16:28:00,
2013-01-28 11:33:00,34.9,31.1,29.12,SE,135,0.0,0.0,86,0.00,,---,0.04,VWS V13.01,2013-01-28 16:33:00,
2013-01-28 11:38:00,35.1,31.3,29.12,SE,135,0.0,0.0,86,0.00,,---,0.04,VWS V13.01,2013-01-28 16:38:00,
2013-01-28 11:43:00,35.1,31.3,29.12,SE,135,0.0,0.0,86,0.00,,---,0.04,VWS V13.01,2013-01-28 16:43:00,
2013-01-28 11:49:00,35.2,31.5,29.12,SE,135,0.0,0.0,86,0.00,,---,0.04,VWS V13.01,2013-01-28 16:49:00,
2013-01-28 11:54:00,35.2,31.5,29.12,SE,135,0.0,0.0,86,0.00,,---,0.04,VWS V13.01,2013-01-28 16:54:00,
2013-01-28 11:59:00,35.2,31.5,29.12,SE,135,0.0,0.0,86,0.00,,---,0.04,VWS V13.01,2013-01-28 16:59:00,
2013-01-28 12:04:00,35.2,31.5,29.09,SE,135,0.0,0.0,86,0.00,,---,0.04,VWS V13.01,2013-01-28 17:04:00,
2013-01-28 12:09:00,35.2,31.8,29.09,SE,135,0.0,0.0,87,0.00,,---,0.04,VWS V13.01,2013-01-28 17:09:00,
2013-01-28 12:14:00,35.4,31.9,29.09,SE,135,0.0,0.0,87,0.00,,---,0.04,VWS V13.01,2013-01-28 17:14:00,
2013-01-28 12:19:00,35.4,31.9,29.09,SE,135,0.0,0.0,87,0.00,,---,0.04,VWS V13.01,2013-01-28 17:19:00,
2013-01-28 12:24:00,35.4,31.9,29.09,SE,135,0.0,0.0,87,0.00,,---,0.04,VWS V13.01,2013-01-28 17:24:00,
2013-01-28 12:29:00,35.6,31.8,29.09,SE,135,0.0,0.0,86,0.00,,---,0.04,VWS V13.01,2013-01-28 17:29:00,
2013-01-28 12:34:00,35.6,31.8,29.09,SE,135,0.0,0.0,86,0.00,,---,0.04,VWS V13.01,2013-01-28 17:34:00,
2013-01-28 12:40:00,35.6,31.8,29.09,SE,135,0.0,0.0,86,0.04,,---,0.08,VWS V13.01,2013-01-28 17:40:00,
2013-01-28 12:45:00,35.6,31.8,29.09,SE,135,0.0,0.0,86,0.04,,---,0.08,VWS V13.01,2013-01-28 17:45:00,
2013-01-28 12:50:00,35.6,31.8,29.06,SE,135,0.0,0.0,86,0.04,,---,0.08,VWS V13.01,2013-01-28 17:50:00,
2013-01-28 12:55:00,35.6,31.8,29.06,SE,135,0.0,0.0,86,0.04,,---,0.08,VWS V13.01,2013-01-28 17:55:00,
2013-01-28 13:00:00,35.6,31.8,29.06,SE,135,0.0,0.0,86,0.04,,---,0.08,VWS V13.01,2013-01-28 18:00:00,
2013-01-28 13:05:00,35.6,31.8,29.06,SE,135,0.0,0.0,86,0.04,,---,0.08,VWS V13.01,2013-01-28 18:05:00,
2013-01-28 13:10:00,35.8,32.0,29.06,SE,135,0.0,0.0,86,0.04,,---,0.08,VWS V13.01,2013-01-28 18:10:00,
2013-01-28 13:15:00,35.8,32.0,29.06,SE,135,0.0,0.0,86,0.04,,---,0.08,VWS V13.01,2013-01-28 18:15:00,
2013-01-28 13:20:00,35.8,32.0,29.03,SE,135,0.0,0.0,86,0.04,,---,0.08,VWS V13.01,2013-01-28 18:20:00,
2013-01-28 13:25:00,36.0,32.2,29.03,SE,135,0.0,0.0,86,0.04,,---,0.08,VWS V13.01,2013-01-28 18:25:00,
2013-01-28 13:30:00,36.3,32.5,29.03,SE,135,0.0,0.0,86,0.04,,---,0.08,VWS V13.01,2013-01-28 18:30:00,
2013-01-28 13:35:00,36.3,32.5,29.03,SE,135,0.0,0.0,86,0.04,,---,0.08,VWS V13.01,2013-01-28 18:35:00,
2013-01-28 13:40:00,36.3,32.5,29.03,SE,135,0.0,0.0,86,0.04,,---,0.08,VWS V13.01,2013-01-28 18:40:00,
2013-01-28 13:46:00,36.3,32.5,29.03,SE,135,0.0,0.0,86,0.00,,---,0.08,VWS V13.01,2013-01-28 18:46:00,
2013-01-28 13:51:00,36.5,32.7,29.00,SE,135,0.0,0.0,86,0.00,,---,0.08,VWS V13.01,2013-01-28 18:51:00,
2013-01-28 13:56:00,36.5,32.7,29.00,SE,135,0.0,0.0,86,0.00,,---,0.08,VWS V13.01,2013-01-28 18:56:00,
2013-01-28 14:01:00,36.7,32.9,29.00,SE,135,0.0,0.0,86,0.00,,---,0.08,VWS V13.01,2013-01-28 19:01:00,
2013-01-28 14:06:00,36.7,32.9,29.00,SE,135,0.0,0.0,86,0.04,,---,0.12,VWS V13.01,2013-01-28 19:06:00,
2013-01-28 14:11:00,36.7,32.9,29.00,SE,135,0.0,0.0,86,0.04,,---,0.12,VWS V13.01,2013-01-28 19:11:00,
2013-01-28 14:16:00,36.7,32.9,29.00,SE,135,0.0,0.0,86,0.04,,---,0.12,VWS V13.01,2013-01-28 19:16:00,
2013-01-28 14:21:00,36.5,32.7,29.00,SE,135,0.0,0.0,86,0.04,,---,0.12,VWS V13.01,2013-01-28 19:21:00,
2013-01-28 14:26:00,36.5,32.7,29.00,SE,135,0.0,0.0,86,0.04,,---,0.12,VWS V13.01,2013-01-28 19:26:00,
2013-01-28 14:31:00,36.3,32.5,29.03,SE,135,0.0,0.0,86,0.04,,---,0.12,VWS V13.01,2013-01-28 19:31:00,
2013-01-28 14:36:00,36.3,32.5,29.03,SE,135,0.0,0.0,86,0.04,,---,0.12,VWS V13.01,2013-01-28 19:36:00,
2013-01-28 14:41:00,36.3,32.5,29.03,SE,135,0.0,0.0,86,0.04,,---,0.12,VWS V13.01,2013-01-28 19:41:00,
2013-01-28 14:46:00,36.3,32.5,29.03,SE,135,0.0,0.0,86,0.04,,---,0.12,VWS V13.01,2013-01-28 19:46:00,
2013-01-28 14:52:00,36.3,32.5,29.00,SE,135,0.0,0.0,86,0.04,,---,0.12,VWS V13.01,2013-01-28 19:52:00,
2013-01-28 14:57:00,36.7,32.9,29.00,SE,135,0.0,0.0,86,0.04,,---,0.12,VWS V13.01,2013-01-28 19:57:00,
2013-01-28 15:02:00,36.7,32.9,29.00,SE,135,0.0,0.0,86,0.04,,---,0.12,VWS V13.01,2013-01-28 20:02:00,
2013-01-28 15:07:00,36.7,32.9,29.00,SE,135,0.0,0.0,86,0.04,,---,0.12,VWS V13.01,2013-01-28 20:07:00,
2013-01-28 15:12:00,36.9,33.1,29.00,SE,135,0.0,0.0,86,0.04,,---,0.12,VWS V13.01,2013-01-28 20:12:00,
2013-01-28 15:17:00,36.9,33.1,29.00,SE,135,0.0,0.0,86,0.04,,---,0.12,VWS V13.01,2013-01-28 20:17:00,
2013-01-28 15:22:00,36.9,33.1,29.00,SE,135,0.0,0.0,86,0.09,,---,0.17,VWS V13.01,2013-01-28 20:22:00,
2013-01-28 15:27:00,36.9,33.1,29.00,SE,135,0.0,0.0,86,0.05,,---,0.17,VWS V13.01,2013-01-28 20:27:00,
2013-01-28 15:32:00,37.0,33.2,29.00,SE,135,0.0,0.0,86,0.05,,---,0.17,VWS V13.01,2013-01-28 20:32:00,
2013-01-28 15:37:00,37.0,33.2,29.00,SE,135,0.0,0.0,86,0.05,,---,0.17,VWS V13.01,2013-01-28 20:37:00,
2013-01-28 15:42:00,37.0,33.2,29.00,SE,135,0.0,0.0,86,0.05,,---,0.17,VWS V13.01,2013-01-28 20:42:00,
2013-01-28 15:47:00,37.2,33.4,29.00,SE,135,0.0,0.0,86,0.05,,---,0.17,VWS V13.01,2013-01-28 20:47:00,
2013-01-28 15:52:00,37.2,33.4,29.00,SE,135,0.0,0.0,86,0.05,,---,0.17,VWS V13.01,2013-01-28 20:52:00,
2013-01-28 15:57:00,37.2,33.4,29.00,SE,135,0.0,0.0,86,0.05,,---,0.17,VWS V13.01,2013-01-28 20:57:00,
2013-01-28 16:03:00,37.4,33.6,29.00,SE,135,0.0,0.0,86,0.05,,---,0.00,VWS V13.01,2013-01-28 21:03:00,
2013-01-28 16:08:00,37.4,33.6,29.00,SE,135,0.0,0.0,86,0.05,,---,0.17,VWS V13.01,2013-01-28 21:08:00,
2013-01-28 16:13:00,37.4,33.6,29.00,SE,135,0.0,0.0,86,0.05,,---,0.17,VWS V13.01,2013-01-28 21:13:00,
2013-01-28 16:18:00,37.4,33.6,29.00,SE,135,0.0,0.0,86,0.05,,---,0.17,VWS V13.01,2013-01-28 21:18:00,
2013-01-28 16:23:00,37.4,33.6,29.00,SE,135,0.0,0.0,86,0.05,,---,0.17,VWS V13.01,2013-01-28 21:23:00,
2013-01-28 16:28:00,37.6,33.8,29.00,SE,135,0.0,0.0,86,0.00,,---,0.17,VWS V13.01,2013-01-28 21:28:00,
2013-01-28 16:33:00,37.6,33.8,29.00,SE,135,0.0,0.0,86,0.00,,---,0.17,VWS V13.01,2013-01-28 21:33:00,
2013-01-28 16:38:00,37.8,34.0,29.00,SE,135,0.0,0.0,86,0.00,,---,0.17,VWS V13.01,2013-01-28 21:38:00,
2013-01-28 16:43:00,37.9,34.1,29.00,SE,135,0.0,0.0,86,0.00,,---,0.17,VWS V13.01,2013-01-28 21:43:00,
2013-01-28 16:49:00,38.1,34.3,29.00,SE,135,0.0,0.0,86,0.00,,---,0.17,VWS V13.01,2013-01-28 21:49:00,
2013-01-28 16:54:00,38.3,34.5,29.00,SE,135,0.0,0.0,86,0.00,,---,0.17,VWS V13.01,2013-01-28 21:54:00,
2013-01-28 16:59:00,38.5,34.7,29.00,SE,135,0.0,0.0,86,0.00,,---,0.17,VWS V13.01,2013-01-28 21:59:00,
2013-01-28 17:04:00,38.7,34.8,28.97,SE,135,0.0,0.0,86,0.00,,---,0.17,VWS V13.01,2013-01-28 22:04:00,
2013-01-28 17:09:00,38.7,34.8,28.97,SE,135,0.0,0.0,86,0.00,,---,0.17,VWS V13.01,2013-01-28 22:09:00,
2013-01-28 17:14:00,38.7,34.8,28.97,SE,135,0.0,0.0,86,0.00,,---,0.17,VWS V13.01,2013-01-28 22:14:00,
2013-01-28 17:19:00,38.7,34.8,29.00,SE,135,0.0,0.0,86,0.00,,---,0.17,VWS V13.01,2013-01-28 22:19:00,
2013-01-28 17:24:00,38.7,34.8,29.00,SE,135,0.0,0.0,86,0.00,,---,0.17,VWS V13.01,2013-01-28 22:24:00,
2013-01-28 17:29:00,38.7,34.8,29.00,SE,135,0.0,0.0,86,0.00,,---,0.21,VWS V13.01,2013-01-28 22:29:00,
2013-01-28 17:34:00,38.7,34.8,29.00,SE,135,0.0,0.0,86,0.04,,---,0.21,VWS V13.01,2013-01-28 22:34:00,
2013-01-28 17:40:00,38.7,34.8,29.00,SE,135,0.0,0.0,86,0.04,,---,0.21,VWS V13.01,2013-01-28 22:40:00,
2013-01-28 17:45:00,38.5,34.7,29.00,SE,135,0.0,0.0,86,0.04,,---,0.21,VWS V13.01,2013-01-28 22:45:00,
2013-01-28 17:50:00,38.5,34.7,29.00,NW,315,0.0,4.9,86,0.04,,---,0.21,VWS V13.01,2013-01-28 22:50:00,
2013-01-28 17:55:00,38.5,34.7,29.00,NW,315,0.0,4.9,86,0.04,,---,0.21,VWS V13.01,2013-01-28 22:55:00,
2013-01-28 18:00:00,38.5,34.7,29.00,NW,315,0.0,4.9,86,0.04,,---,0.21,VWS V13.01,2013-01-28 23:00:00,
2013-01-28 18:05:00,38.5,34.7,29.00,NW,315,0.0,0.0,86,0.04,,---,0.21,VWS V13.01,2013-01-28 23:05:00,
2013-01-28 18:10:00,38.7,34.8,29.00,SW,225,0.0,3.6,86,0.04,,---,0.21,VWS V13.01,2013-01-28 23:10:00,
2013-01-28 18:15:00,38.8,35.0,29.00,SW,225,0.0,3.6,86,0.04,,---,0.21,VWS V13.01,2013-01-28 23:15:00,
2013-01-28 18:20:00,38.8,35.0,29.00,South,180,0.0,5.4,86,0.04,,---,0.21,VWS V13.01,2013-01-28 23:20:00,
2013-01-28 18:25:00,40.5,36.3,29.00,SE,135,4.0,7.6,85,0.04,,---,0.21,VWS V13.01,2013-01-28 23:25:00,
2013-01-28 18:30:00,40.1,36.0,29.00,South,180,4.9,7.6,85,0.04,,---,0.21,VWS V13.01,2013-01-28 23:30:00,
2013-01-28 18:35:00,39.7,35.6,28.97,SW,225,0.0,7.6,85,0.04,,---,0.21,VWS V13.01,2013-01-28 23:35:00,
2013-01-28 18:41:00,42.1,37.9,28.97,SE,135,3.6,7.6,85,0.04,,---,0.21,VWS V13.01,2013-01-28 23:41:00,
2013-01-28 18:46:00,42.3,38.1,28.97,SE,135,3.6,3.6,85,0.00,,---,0.21,VWS V13.01,2013-01-28 23:46:00,
2013-01-28 18:51:00,41.5,37.4,28.97,WSW,248,0.0,5.4,85,0.00,,---,0.21,VWS V13.01,2013-01-28 23:51:00,
2013-01-28 18:56:00,44.6,40.1,28.97,WSW,248,2.7,5.4,84,0.00,,---,0.21,VWS V13.01,2013-01-28 23:56:00,
2013-01-28 19:01:00,45.1,40.6,28.97,WNW,292,5.4,5.8,84,0.04,,---,0.25,VWS V13.01,2013-01-29 00:01:00,
2013-01-28 19:06:00,46.8,42.2,29.00,SE,135,3.6,3.6,84,0.04,,---,0.25,VWS V13.01,2013-01-29 00:06:00,
2013-01-28 19:11:00,50.0,45.0,29.00,SE,135,10.1,10.1,83,0.04,,---,0.25,VWS V13.01,2013-01-29 00:11:00,
2013-01-28 19:16:00,50.7,45.8,29.00,SW,225,2.7,10.1,83,0.04,,---,0.25,VWS V13.01,2013-01-29 00:16:00,
2013-01-28 19:21:00,50.7,45.8,28.97,SE,135,5.8,10.1,83,0.04,,---,0.25,VWS V13.01,2013-01-29 00:21:00,
2013-01-28 19:26:00,50.2,45.2,28.97,South,180,5.4,7.6,83,0.08,,---,0.29,VWS V13.01,2013-01-29 00:26:00,
2013-01-28 19:31:00,52.3,47.3,29.00,South,180,6.7,7.6,83,0.08,,---,0.29,VWS V13.01,2013-01-29 00:31:00,
2013-01-28 19:36:00,53.1,48.4,29.00,South,180,5.8,8.7,84,0.08,,---,0.29,VWS V13.01,2013-01-29 00:36:00,
2013-01-28 19:41:00,52.5,47.8,29.00,South,180,4.0,8.7,84,0.08,,---,0.29,VWS V13.01,2013-01-29 00:41:00,
2013-01-28 19:47:00,52.9,48.2,29.00,West,270,4.9,6.3,84,0.08,,---,0.29,VWS V13.01,2013-01-29 00:47:00,
2013-01-28 19:52:00,52.2,47.5,29.00,NW,315,4.0,7.6,84,0.12,,---,0.33,VWS V13.01,2013-01-29 00:52:00,
2013-01-28 19:57:00,53.1,47.4,29.00,South,180,7.6,8.7,81,0.12,,---,0.33,VWS V13.01,2013-01-29 00:57:00,
2013-01-28 20:02:00,53.2,46.9,29.00,South,180,3.6,8.7,79,0.12,,---,0.33,VWS V13.01,2013-01-29 01:02:00,
2013-01-28 20:07:00,53.2,46.9,29.00,South,180,3.6,6.7,79,0.08,,---,0.33,VWS V13.01,2013-01-29 01:07:00,
2013-01-28 20:12:00,54.1,40.1,29.00,SE,135,3.1,6.7,59,0.08,,---,0.33,VWS V13.01,2013-01-29 01:12:00,
2013-01-28 20:17:00,53.8,38.5,29.00,SSE,158,4.9,6.7,56,0.08,,---,0.33,VWS V13.01,2013-01-29 01:17:00,
2013-01-28 20:22:00,53.8,38.5,29.00,South,180,4.9,11.4,56,0.08,,---,0.33,VWS V13.01,2013-01-29 01:22:00,
2013-01-28 20:27:00,54.5,38.2,29.00,South,180,3.6,8.3,54,0.08,,---,0.33,VWS V13.01,2013-01-29 01:27:00,
2013-01-28 20:32:00,54.7,37.4,28.97,SE,135,4.9,8.7,52,0.08,,---,0.33,VWS V13.01,2013-01-29 01:32:00,
2013-01-28 20:37:00,54.5,37.2,28.97,South,180,0.0,8.7,52,0.08,,---,0.33,VWS V13.01,2013-01-29 01:37:00,
2013-01-28 20:42:00,54.3,37.1,28.97,South,180,2.7,8.7,52,0.08,,---,0.33,VWS V13.01,2013-01-29 01:42:00,
2013-01-28 20:47:00,54.5,37.7,28.97,South,180,6.3,8.3,53,0.04,,---,0.33,VWS V13.01,2013-01-29 01:47:00,
2013-01-28 20:52:00,54.5,37.7,28.97,West,270,3.1,8.7,53,0.04,,---,0.33,VWS V13.01,2013-01-29 01:52:00,
2013-01-28 20:58:00,54.7,36.9,28.97,South,180,5.4,8.7,51,0.04,,---,0.33,VWS V13.01,2013-01-29 01:58:00,
2013-01-28 21:03:00,54.7,36.4,28.97,South,180,3.1,8.7,50,0.04,,---,0.33,VWS V13.01,2013-01-29 02:03:00,
2013-01-28 21:08:00,54.7,36.4,28.97,South,180,8.1,8.1,50,0.00,,---,0.33,VWS V13.01,2013-01-29 02:08:00,
2013-01-28 21:13:00,55.0,36.8,28.97,SE,135,4.9,8.1,50,0.00,,---,0.33,VWS V13.01,2013-01-29 02:13:00,
2013-01-28 21:18:00,55.0,36.8,28.97,SSE,158,7.2,11.4,50,0.00,,---,0.33,VWS V13.01,2013-01-29 02:18:00,
2013-01-28 21:23:00,55.4,36.6,28.97,SE,135,5.8,5.8,49,0.00,,---,0.33,VWS V13.01,2013-01-29 02:23:00,
2013-01-28 21:28:00,55.2,36.9,28.97,SSE,158,3.1,5.8,50,0.00,,---,0.33,VWS V13.01,2013-01-29 02:28:00,
2013-01-28 21:33:00,55.6,36.7,29.00,SSE,158,4.9,8.1,49,0.00,,---,0.33,VWS V13.01,2013-01-29 02:33:00,
2013-01-28 21:38:00,55.6,36.7,29.00,SSE,158,4.9,8.1,49,0.00,,---,0.33,VWS V13.01,2013-01-29 02:38:00,
2013-01-28 21:43:00,55.8,36.4,29.00,SSE,158,5.4,5.4,48,0.00,,---,0.33,VWS V13.01,2013-01-29 02:43:00,
2013-01-28 21:48:00,55.6,36.2,28.97,South,180,7.2,7.2,48,0.00,,---,0.33,VWS V13.01,2013-01-29 02:48:00,
2013-01-28 21:53:00,55.6,36.2,28.97,SSE,158,3.6,7.2,48,0.00,,---,0.33,VWS V13.01,2013-01-29 02:53:00,
2013-01-28 21:58:00,55.8,36.4,28.97,SW,225,5.4,9.2,48,0.00,,---,0.33,VWS V13.01,2013-01-29 02:58:00,
2013-01-28 22:04:00,56.1,36.7,28.97,SW,225,4.0,8.1,48,0.00,,---,0.33,VWS V13.01,2013-01-29 03:04:00,
2013-01-28 22:09:00,56.1,36.7,28.97,South,180,5.8,8.1,48,0.00,,---,0.33,VWS V13.01,2013-01-29 03:09:00,
2013-01-28 22:14:00,55.6,36.2,28.97,South,180,3.1,10.5,48,0.00,,---,0.33,VWS V13.01,2013-01-29 03:14:00,
2013-01-28 22:19:00,56.1,36.7,28.97,SSE,158,2.7,10.5,48,0.00,,---,0.33,VWS V13.01,2013-01-29 03:19:00,
2013-01-28 22:24:00,56.1,36.7,28.97,SW,225,4.9,4.9,48,0.00,,---,0.33,VWS V13.01,2013-01-29 03:24:00,
2013-01-28 22:29:00,55.9,36.5,28.97,South,180,5.8,6.3,48,0.00,,---,0.33,VWS V13.01,2013-01-29 03:29:00,
2013-01-28 22:34:00,56.1,36.7,28.97,SSE,158,0.0,6.7,48,0.00,,---,0.33,VWS V13.01,2013-01-29 03:34:00,
2013-01-28 22:39:00,56.1,36.7,28.97,South,180,7.6,11.0,48,0.00,,---,0.33,VWS V13.01,2013-01-29 03:39:00,
2013-01-28 22:44:00,56.1,36.2,28.97,SE,135,3.1,5.8,47,0.00,,---,0.33,VWS V13.01,2013-01-29 03:44:00,
2013-01-28 22:49:00,56.5,37.0,28.97,South,180,8.1,8.1,48,0.00,,---,0.33,VWS V13.01,2013-01-29 03:49:00,
2013-01-28 22:54:00,56.3,36.3,28.97,South,180,5.4,8.1,47,0.00,,---,0.33,VWS V13.01,2013-01-29 03:54:00,
2013-01-28 22:59:00,56.3,36.3,28.97,SE,135,4.0,8.1,47,0.00,,---,0.33,VWS V13.01,2013-01-29 03:59:00,
2013-01-28 23:04:00,56.3,36.9,29.00,SSE,158,2.7,5.4,48,0.00,,---,0.33,VWS V13.01,2013-01-29 04:04:00,
2013-01-28 23:09:00,56.3,36.9,29.00,South,180,2.7,6.3,48,0.00,,---,0.33,VWS V13.01,2013-01-29 04:09:00,
2013-01-28 23:15:00,56.1,36.7,29.00,South,180,4.9,6.3,48,0.00,,---,0.33,VWS V13.01,2013-01-29 04:15:00,
2013-01-28 23:20:00,56.3,36.9,29.00,South,180,6.3,7.6,48,0.00,,---,0.33,VWS V13.01,2013-01-29 04:20:00,
2013-01-28 23:25:00,56.1,36.7,29.00,SSE,158,6.3,6.3,48,0.00,,---,0.33,VWS V13.01,2013-01-29 04:25:00,
2013-01-28 23:30:00,56.1,36.7,29.00,SE,135,12.3,12.3,48,0.00,,---,0.33,VWS V13.01,2013-01-29 04:30:00,
2013-01-28 23:35:00,56.3,36.9,29.00,ESE,112,8.3,12.3,48,0.00,,---,0.33,VWS V13.01,2013-01-29 04:35:00,
2013-01-28 23:40:00,55.9,37.1,29.00,South,180,5.8,12.3,49,0.00,,---,0.33,VWS V13.01,2013-01-29 04:40:00,
2013-01-28 23:45:00,56.3,37.4,29.00,South,180,2.2,7.2,49,0.00,,---,0.33,VWS V13.01,2013-01-29 04:45:00,
2013-01-28 23:50:00,56.1,37.8,29.00,SSE,158,4.0,9.6,50,0.00,,---,0.33,VWS V13.01,2013-01-29 04:50:00,
2013-01-28 23:55:00,56.1,37.8,29.00,South,180,2.7,9.6,50,0.00,,---,0.33,VWS V13.01,2013-01-29 04:55:00,